IZ2OSD Weather Reports


time (UTC)temp
C
wind
direction
speed
KPH
gust
KPH
rain 1hr
cm
rain 24hr
cm
rain mn
cm
humidity
%
barometer
mb
20260906184827 28 0.0 0.0 0.00 0.00 0.00 58 1021.5
20260906183758 28 0.0 0.0 0.00 0.00 0.00 57 1021.3
20260906182755 28 0.0 1.6 0.00 0.00 0.00 57 1021.3
20260906181805 28 0.0 1.6 0.00 0.00 0.00 56 1021.2
20260906180735 29 337 0.0 1.6 0.00 0.00 0.00 56 1021.2
20260906175731 29 315 0.0 4.8 0.00 0.00 0.00 55 1021.2
20260906174725 30 112 1.6 3.2 0.00 0.00 0.00 54 1021.2
20260906173722 30 135 3.2 4.8 0.00 0.00 0.00 51 1021.0
20260906172718 30 0.0 0.0 0.00 0.00 0.00 50 1021.1
20260906171208 30 135 1.6 3.2 0.00 0.00 0.00 50 1021.0
20260906170205 30 0.0 1.6 0.00 0.00 0.00 50 1020.8
20260906165201 31 112 1.6 4.8 0.00 0.00 0.00 49 1020.8
20260906164157 31 67 0.0 4.8 0.00 0.00 0.00 50 1020.6
20260906163154 31 315 0.0 1.6 0.00 0.00 0.00 49 1020.5
20260906162150 31 315 0.0 4.8 0.00 0.00 0.00 49 1020.6
20260906161147 31 45 4.8 6.4 0.00 0.00 0.00 50 1020.6
20260906160143 31 315 1.6 4.8 0.00 0.00 0.00 49 1020.8
20260906155134 31 0.0 0.0 0.00 0.00 0.00 49 1020.7
20260906154151 31 0.0 1.6 0.00 0.00 0.00 48 1021.1
20260906153126 31 135 0.0 3.2 0.00 0.00 0.00 49 1020.7
20260906152142 31 135 0.0 1.6 0.00 0.00 0.00 49 1020.7
20260906151119 31 315 0.0 1.6 0.00 0.00 0.00 49 1020.9
20260906150110 31 157 0.0 1.6 0.00 0.00 0.00 49 1020.6
20260906145126 32 0.0 0.0 0.00 0.00 0.00 47 1021.1
20260906144101 31 315 1.6 3.2 0.00 0.00 0.00 49 1020.8
20260906143058 31 157 0.0 3.2 0.00 0.00 0.00 50 1020.9
20260906142054 31 135 0.0 1.6 0.00 0.00 0.00 49 1021.1
20260906140245 31 292 0.0 3.2 0.00 0.00 0.00 48 1021.1
20260906135243 31 315 3.2 3.2 0.00 0.00 0.00 48 1021.1
20260906134239 30 157 4.8 9.7 0.00 0.00 0.00 51 1021.4
20260906133255 31 315 1.6 4.8 0.00 0.00 0.00 50 1021.3
20260906132232 31 119 1.6 4.8 0.00 0.00 0.00 49 1021.5
20260906131224 32 0.0 0.0 0.00 0.00 0.00 48 1021.4
20260906130219 30 315 1.6 3.2 0.00 0.00 0.00 51 1021.7
20260906125214 30 90 4.8 9.7 0.00 0.00 0.00 50 1021.7
20260906124210 31 315 1.6 3.2 0.00 0.00 0.00 48 1021.7
20260906123207 31 135 3.2 9.7 0.00 0.00 0.00 49 1021.7
20260906121712 30 112 1.6 3.2 0.00 0.00 0.00 50 1021.9
20260906120707 30 135 4.8 4.8 0.00 0.00 0.00 51 1021.8
20260906115703 30 112 3.2 6.4 0.00 0.00 0.00 50 1021.7
20260906114702 31 0 6.4 16.1 0.00 0.00 0.00 50 1021.7
20260906113716 30 135 1.6 3.2 0.00 0.00 0.00 49 1021.9
20260906111906 30 112 4.8 6.4 0.00 0.00 0.00 50 1022.1
20260906110903 31 315 3.2 4.8 0.00 0.00 0.00 50 1021.7
20260906105859 30 135 3.2 6.4 0.00 0.00 0.00 52 1022.1
20260906104855 29 337 3.2 9.7 0.00 0.00 0.00 53 1022.3
20260906102913 29 135 4.8 9.7 0.00 0.00 0.00 52 1022.4
20260906100903 30 135 3.2 6.4 0.00 0.00 0.00 52 1022.6
20260906095900 30 292 3.2 9.7 0.00 0.00 0.00 51 1022.6
20260906094857 30 202 0.0 3.2 0.00 0.00 0.00 50 1022.5
20260906093011 31 315 1.6 3.2 0.00 0.00 0.00 48 1022.5
20260906092049 31 292 3.2 4.8 0.00 0.00 0.00 49 1022.8
20260906090959 31 270 0.0 1.6 0.00 0.00 0.00 48 1022.7
20260906085955 30 315 3.2 3.2 0.00 0.00 0.00 49 1022.7
20260906084952 30 315 1.6 3.2 0.00 0.00 0.00 50 1022.6
20260906084009 31 0.0 1.6 0.00 0.00 0.00 50 1022.5
20260906082945 29 315 0.0 3.2 0.00 0.00 0.00 53 1022.5
20260906081935 28 315 1.6 3.2 0.00 0.00 0.00 55 1022.6
20260906080931 27 292 1.6 3.2 0.00 0.00 0.00 56 1022.2
20260906075921 27 0.0 1.6 0.00 0.00 0.00 56 1022.1
20260906074916 28 292 3.2 4.8 0.00 0.00 0.00 54 1022.2
20260906073913 27 315 1.6 3.2 0.00 0.00 0.00 56 1022.2
20260906072931 26 315 3.2 4.8 0.00 0.00 0.00 57 1022.1
20260906071907 26 315 3.2 3.2 0.00 0.00 0.00 57 1021.9
20260906070924 26 292 1.6 3.2 0.00 0.00 0.00 56 1022.0
20260906065901 26 0.0 0.0 0.00 0.00 0.00 58 1021.8
20260906064857 25 292 1.6 3.2 0.00 0.00 0.00 60 1021.6
20260906063852 25 292 1.6 3.2 0.00 0.00 0.00 61 1021.7
20260906062851 25 337 0.0 1.6 0.00 0.00 0.00 60 1021.8
20260906061846 25 0.0 0.0 0.00 0.00 0.00 59 1021.8
20260906061000 25 0.0 0.0 0.00 0.00 0.00 60 1021.5
20260906055833 25 337 0.0 1.6 0.00 0.00 0.00 62 1021.1
20260906054829 24 315 1.6 3.2 0.00 0.00 0.00 62 1020.9
20260906053849 24 0.0 0.0 0.00 0.00 0.00 64 1020.8
20260906052822 23 315 1.6 4.8 0.00 0.00 0.00 66 1020.6
20260906051819 23 315 3.2 4.8 0.00 0.00 0.00 66 1020.7
20260906050818 23 315 3.2 4.8 0.00 0.00 0.00 67 1020.5
20260906045812 23 315 1.6 3.2 0.00 0.00 0.00 67 1020.4
20260906044808 23 0.0 1.6 0.00 0.00 0.00 67 1020.3
20260906042823 23 315 3.2 3.2 0.00 0.00 0.00 69 1020.2
20260906041819 23 315 0.0 3.2 0.00 0.00 0.00 68 1020.0
20260906040814 23 0 1.6 4.8 0.00 0.00 0.00 70 1019.9
20260906035811 23 315 4.8 9.7 0.00 0.00 0.00 71 1019.9
20260906034809 23 320 1.6 6.4 0.00 0.00 0.00 71 1019.9
20260906033759 24 337 3.2 6.4 0.00 0.00 0.00 71 1019.9
20260906032755 24 0 4.8 9.7 0.00 0.00 0.00 71 1019.9
20260906031752 24 315 4.8 9.7 0.00 0.00 0.00 71 1019.8
20260906030748 24 315 4.8 9.7 0.00 0.00 0.00 71 1019.4
20260906025745 24 335 4.8 9.7 0.00 0.00 0.00 72 1019.5
20260906024735 24 315 3.2 6.4 0.00 0.00 0.00 72 1019.6
20260906023731 25 0.0 3.2 0.00 0.00 0.00 72 1019.6
20260906022722 25 315 6.4 9.7 0.00 0.00 0.00 72 1019.3
20260906021736 25 292 4.8 9.7 0.00 0.00 0.00 72 1019.4
20260906020714 25 337 1.6 9.7 0.00 0.00 0.00 71 1019.2
20260906015730 25 315 4.8 9.7 0.00 0.00 0.00 69 1019.0
20260906014701 25 315 4.8 14.5 0.00 0.00 0.00 67 1019.2
20260906013657 25 337 3.2 6.4 0.00 0.00 0.00 66 1019.5
20260906012321 25 22 3.2 4.8 0.00 0.00 0.00 65 1019.3
20260906010136 25 45 4.8 9.7 0.00 0.00 0.00 62 1018.9
20260906005153 25 337 3.2 6.4 0.00 0.00 0.00 61 1019.1
20260906004131 25 0 6.4 9.7 0.00 0.00 0.00 59 1019.1
20260906003107 24 45 1.6 4.8 0.00 0.00 0.00 57 1019.0
20260906002102 24 0.0 0.0 0.00 0.00 0.00 55 1019.1
20260906001059 24 315 0.0 1.6 0.00 0.00 0.00 57 1019.1
20260906000056 25 315 1.6 3.2 0.00 0.00 0.00 56 1019.1
20260905234727 25 315 0.0 4.8 0.00 0.00 0.00 54 1018.9
20260905233723 25 90 0.0 1.6 0.00 0.00 0.00 53 1019.0
20260905232742 25 0.0 0.0 0.00 0.00 0.00 52 1019.1
20260905231711 25 337 1.6 3.2 0.00 0.00 0.00 51 1018.9
20260905230710 25 315 1.6 6.4 0.00 0.00 0.00 54 1019.0
20260905225702 25 90 4.8 9.7 0.00 0.00 0.00 53 1018.5
20260905224659 25 315 1.6 3.2 0.00 0.00 0.00 52 1018.5
20260905223838 26 315 3.2 4.8 0.00 0.00 0.00 51 1018.1
20260905221838 26 315 3.2 4.8 0.00 0.00 0.00 51 1018.2
20260905220835 26 315 0.0 3.2 0.00 0.00 0.00 49 1018.2
20260905215853 27 0.0 1.6 0.00 0.00 0.00 47 1018.1
20260905214823 27 315 3.2 4.8 0.00 0.00 0.00 47 1017.4
20260905213819 27 315 4.8 4.8 0.00 0.00 0.00 48 1017.7
20260905212815 27 315 3.2 6.4 0.00 0.00 0.00 49 1017.7
20260905211812 27 315 3.2 6.4 0.00 0.00 0.00 49 1017.7
20260905210809 27 315 4.8 6.4 0.00 0.00 0.00 50 1017.5
20260905205401 27 315 1.6 3.2 0.00 0.00 0.00 52 1017.5
20260905204334 27 315 4.8 4.8 0.00 0.00 0.00 54 1017.7
20260905203353 26 315 1.6 3.2 0.00 0.00 0.00 57 1017.4
20260905202322 26 292 1.6 3.2 0.00 0.00 0.00 59 1017.4
20260905201318 26 315 3.2 6.4 0.00 0.00 0.00 62 1017.3
20260905200313 26 315 1.6 3.2 0.00 0.00 0.00 63 1017.5
20260905195330 27 315 1.6 3.2 0.00 0.00 0.00 63 1017.3
20260905194306 27 315 0.0 1.6 0.00 0.00 0.00 63 1017.0
20260905193302 27 0.0 0.0 0.00 0.00 0.00 65 1016.9
20260905192319 27 315 0.0 1.6 0.00 0.00 0.00 64 1017.1
20260905191256 27 315 4.8 4.8 0.00 0.00 0.00 64 1017.0
20260905185819 28 0.0 0.0 0.00 0.00 0.00 59 1017.0